Volver al catálogo

FENGYUN 2A DEB

ActivoGEO
NORAD 43355·DEBRIS·🇨🇳 China

Lanzado Jun 10, 1997 desde Xichang Satellite Launch Center

Loading…

TLE

ActualizadoSource: Space-Track

Época: Sep 14, 2026, 17:11 UTC

1 43355U 97029D   26257.71602859 -.00000352  00000-0  00000-0 0  9998
2 43355  14.8533 356.2500 0055145  54.3086 306.2184  1.00261338 43503

Sigue FENGYUN 2A DEB en tiempo real con AllMySat

Download on the App Store